Regional Weather Roundup
Issued by NWS Bismarck, ND

Current Version | Previous Version | Text Only | Print | Product List | Glossary On
Versions: 1 2 3 4 5 6 7 8 9 10 11 12 13 14 15 16 17 18 19 20 21 22 23 24 25 26 27 28 29 30 31 32 33 34 35 36 37 38 39 40 41 42 43 44 45 46 47 48 49 50
000
ASUS43 KBIS 162310
RWRBIS

NWR BROADCAST TEXT
NATIONAL WEATHER SERVICE BISMARCK ND
600 PM CDT TUE OCT 16 2018

NOTE: "FAIR" INDICATES FEW OR NO CLOUDS BELOW 12,000 FEET WITH NO
SIGNIFICANT WEATHER AND/OR OBSTRUCTIONS TO VISIBILITY.


CITY           SKY/WX    TMP DP  RH WIND       PRES   REMARKS
WILLISTON      CLOUDY    54  36  50 NW20      30.21R
MINOT          CLEAR     49  26  41 NW21G26   30.16R
MINOT AFB      CLEAR     48  26  41 NW24G30   30.15R
BISMARCK       CLOUDY    53  28  38 NW14G24   30.18S
DICKINSON      CLOUDY    53  34  48 NW20      30.20S
GARRISON         N/A     49  27  42 NW15      30.17R
HETTINGER ARPT MOCLDY    55  33  43 NW16G24   30.23S
JAMESTOWN      CLEAR     46  28  49 N9        30.14R
CARRINGTON     FAIR      45  27  49 NW17      30.16S
HAZEN          CLOUDY    52  32  46 NW15      30.20R
LINTON           N/A    N/A N/A N/A NW15G21   30.19R
MANDAN         CLOUDY    52  32  46 NW18      30.18R
OAKES            N/A     48  28  46 NW18      30.15R
RUGBY          FAIR      39  25  56 N17G24    30.16R
STANLEY        CLOUDY    46  28  49 NW14      30.19R
TIOGA          CLOUDY    48  30  49 NW18      30.20R
WATFORD CITY   MOCLDY    54  36  50 NW15      30.20S
$$

CITY           SKY/WX    TMP DP  RH WIND       PRES   REMARKS
GRAND FORKS    CLOUDY    37  31  78 CALM      30.14R
GRAND FORKS AF CLOUDY    39  29  69 NW8       30.14R
DEVILS LAKE    CLOUDY    38  26  62 NW17      30.16R
FARGO          CLOUDY    42  28  57 NW17G23   30.14S
CANDO          CLOUDY    37 N/A N/A NW22      30.18R
CAVALIER       CLOUDY    37  30  75 NW7       30.14R
GRAFTON        CLOUDY    37  32  81 NW6       30.16R
GWINNER          N/A     46  28  49 N12       30.15R
LANGDON        CLOUDY    36  32  87 NW18      30.13R
ROLLA          CLOUDY    36  25  64 NW16      30.15S
WALHALLA         N/A     37  37 100 NW12      30.13S
$$

CITY           SKY/WX    TMP DP  RH WIND       PRES   REMARKS
ABERDEEN       CLEAR     54  28  36 NW18G30   30.16S
MOBRIDGE       CLEAR     57  32  38 NW15      30.16S
BUFFALO          N/A     57  33  40 NW21      30.23S
RAPID CITY     PTSUNNY   59  34  39 NW14      30.27S
GLASGOW        CLOUDY    65  33  30 NW13      30.22S
SIDNEY           N/A     57  37  47 NW13      30.22S
WOLF POINT     CLOUDY    64  37  36 NW13      30.22F
GLENDIVE       SUNNY     57  36  45 NW20      30.25S
MILES CITY     SUNNY     61  35  37 NW13      30.28S
BAKER          MOSUNNY   57  34  41 NW21G31   30.27R
$$

CITY           SKY/WX    TMP DP  RH WIND       PRES   REMARKS
BILLINGS       MOSUNNY   61  31  32 SW12      30.33S
GREAT FALLS    SUNNY     62  30  29 SW14G23   30.29F
REGINA         MOCLDY    46  27  46 NW17      30.20R
ESTEVAN        PTCLDY    46  28  49 NW13G24   30.18S
$$




USA.gov is the U.S. government's official web portal to all federal, state and local government web resources and services.